Location: Kerguer�zec
(48.4509°N, 4.7600°W)
Time: 08:04:39
(UTC+00:00)

Cosmos 1953 Rocket - Pass Details

Date: 09 April 2020
Orbit: 604 x 635 km, 82.5° (Epoch: 22 May)

Event Time Altitude Azimuth Distance (km) Brightness Sun altitude
Rises 19:25:10 0° 354° (N) 2,937 7.4 -4.5°
Reaches altitude 10° 19:27:28 10° 359° (N) 2,027 6.5 -4.9°
Maximum altitude 19:31:52 53° 76° (ENE) 787 3.8 -5.6°
Drops below altitude 10° 19:36:15 10° 154° (SSE) 2,017 5.8 -6.3°
Sets 19:38:32 0° 159° (SSE) 2,920 6.6 -6.6°
